GW0882 Weather Reports


time (UTC)temp
F
wind
direction
speed
knots
gust
knots
rain 1hr
in
rain 24hr
in
rain mn
in
humidity
%
barometer
mb
20260507051542 45 0 0.0 0.0 0.00 0.00 0.00 85 1015.6
20260507050041 46 0 0.0 0.0 0.00 0.00 0.00 85 1015.4
20260507044537 46 0 0.0 0.0 0.00 0.00 0.00 85 1015.4
20260507043038 46 0 0.0 0.0 0.00 0.00 0.00 85 1015.3
20260507041543 46 0 0.0 0.0 0.00 0.00 0.00 84 1015.3
20260507040040 46 0 0.0 0.0 0.00 0.00 0.00 84 1015.3
20260507034546 46 0 0.0 0.0 0.00 0.00 0.00 84 1015.3
20260507033049 46 0 0.0 0.0 0.00 0.00 0.00 84 1015.1
20260507031535 46 0 0.0 0.0 0.00 0.00 0.00 84 1015.1
20260507030035 46 0 0.0 0.0 0.00 0.00 0.00 83 1015.1
20260507024547 46 0 0.0 0.0 0.00 0.00 0.00 83 1015.0
20260507023036 46 0 0.0 0.0 0.00 0.00 0.00 83 1015.0
20260507021535 46 0 0.0 0.0 0.00 0.00 0.00 82 1014.9
20260507020037 46 0 0.0 0.0 0.00 0.00 0.00 81 1014.7
20260507014538 47 0 0.0 0.0 0.00 0.00 0.00 81 1014.7
20260507013039 47 0 0.0 0.0 0.00 0.00 0.00 80 1014.7
20260507011538 47 0 0.0 0.0 0.00 0.00 0.00 79 1014.7
20260507010040 48 0 0.0 0.0 0.00 0.00 0.00 78 1014.7
20260507004539 48 0 0.0 0.0 0.00 0.00 0.00 77 1014.7
20260507003039 48 0 0.0 0.9 0.00 0.00 0.00 77 1014.8
20260507001600 49 0 0.0 0.9 0.00 0.00 0.00 77 1014.8
20260507000037 49 0 0.0 0.0 0.00 0.00 0.00 77 1014.9
20260506234546 49 0 0.0 0.9 0.00 0.00 0.00 77 1014.9
20260506233042 49 0 0.0 0.9 0.00 0.00 0.00 77 1014.9
20260506231538 49 333 0.0 2.6 0.00 0.00 0.00 77 1014.8
20260506230039 49 0 0.0 1.7 0.00 0.00 0.00 77 1014.7
20260506224544 49 0 0.0 1.7 0.00 0.00 0.00 77 1014.8
20260506223042 49 0 0.0 3.5 0.00 0.00 0.00 77 1014.7
20260506221539 49 0 0.0 0.0 0.00 0.00 0.00 77 1014.6
20260506220045 49 0 0.0 0.0 0.00 0.00 0.00 76 1014.5
20260506214537 50 0 0.0 0.0 0.00 0.00 0.00 75 1014.5
20260506213035 50 0 0.0 1.7 0.00 0.00 0.00 75 1014.5
20260506211550 50 0 0.0 0.9 0.00 0.00 0.00 75 1014.4
20260506210041 50 0 0.0 2.6 0.00 0.00 0.00 75 1014.3
20260506204539 50 0 0.0 3.5 0.00 0.00 0.00 74 1014.4
20260506203036 50 63 0.9 3.5 0.00 0.00 0.00 74 1014.3
20260506201535 51 0 0.9 2.6 0.00 0.00 0.00 73 1014.2
20260506200036 51 68 0.9 3.5 0.00 0.00 0.00 72 1014.0
20260506194544 51 66 0.0 4.3 0.00 0.00 0.00 71 1013.9
20260506193045 51 69 0.9 4.3 0.00 0.00 0.00 69 1013.8
20260506191537 52 0 0.0 3.5 0.00 0.00 0.00 68 1013.6
20260506190037 52 0 0.0 3.5 0.00 0.00 0.00 67 1013.5
20260506184540 52 77 0.0 4.3 0.00 0.00 0.00 66 1013.3
20260506183042 53 0 0.9 6.1 0.00 0.00 0.00 66 1013.1
20260506181554 53 15 0.0 6.1 0.00 0.00 0.00 65 1013.2
20260506180037 53 0 0.0 6.1 0.00 0.00 0.00 64 1013.0
20260506174536 54 99 0.0 4.3 0.00 0.00 0.00 62 1012.9
20260506173105 54 52 0.0 5.2 0.00 0.00 0.00 61 1012.8
20260506171546 54 0 0.0 3.5 0.00 0.00 0.00 61 1012.6
20260506170039 55 0 0.0 3.5 0.00 0.00 0.00 61 1012.6
20260506164543 55 0 0.9 4.3 0.00 0.00 0.00 61 1012.7
20260506163041 56 80 0.0 3.5 0.00 0.00 0.00 59 1012.6
20260506161541 56 0 0.9 6.1 0.00 0.00 0.00 58 1012.7
20260506160046 57 332 0.9 7.0 0.00 0.00 0.00 58 1012.7
20260506154541 57 0 0.9 8.7 0.00 0.00 0.00 58 1012.7
20260506153036 57 326 1.7 7.8 0.00 0.00 0.00 58 1012.7
20260506151545 57 32 1.7 7.8 0.00 0.00 0.00 57 1012.6
20260506150045 59 66 0.0 8.7 0.00 0.00 0.00 55 1012.7
20260506144544 57 0 0.0 3.5 0.00 0.00 0.00 57 1012.7
20260506143038 58 0 0.0 9.6 0.00 0.00 0.00 54 1012.8
20260506141535 60 340 1.7 7.8 0.00 0.00 0.00 52 1012.6
20260506140037 56 42 0.9 7.0 0.00 0.00 0.00 55 1012.6
20260506134546 57 75 0.0 4.3 0.00 0.00 0.00 54 1012.7
20260506133039 58 318 1.7 5.2 0.00 0.00 0.00 52 1012.7
20260506131546 57 198 0.0 8.7 0.00 0.00 0.00 55 1012.6
20260506130040 58 327 2.6 8.7 0.00 0.00 0.00 52 1012.7
20260506124535 60 44 1.7 7.8 0.00 0.00 0.00 50 1012.6
20260506123041 61 0 1.7 9.6 0.00 0.00 0.00 45 1012.5
20260506121538 59 0 1.7 8.7 0.00 0.00 0.00 50 1012.5
20260506120040 62 302 1.7 9.6 0.00 0.00 0.00 50 1012.5
20260506114535 61 121 1.7 8.7 0.00 0.00 0.00 46 1012.7
20260506113041 60 127 2.6 11.3 0.00 0.00 0.00 50 1012.5
20260506111538 58 296 5.2 13.9 0.00 0.00 0.00 56 1012.7
20260506110037 59 253 0.9 10.4 0.00 0.00 0.00 53 1012.7
20260506104535 58 296 2.6 12.2 0.00 0.00 0.00 55 1012.7
20260506103039 58 336 0.9 10.4 0.00 0.00 0.00 53 1012.6
20260506101536 57 0 1.7 17.4 0.00 0.00 0.00 57 1012.5
20260506100038 58 303 2.6 10.4 0.00 0.00 0.00 55 1012.5
20260506094547 57 319 3.5 10.4 0.00 0.00 0.00 57 1012.6
20260506093039 57 319 1.7 8.7 0.00 0.00 0.00 56 1012.7
20260506091535 54 296 4.3 11.3 0.00 0.00 0.00 61 1012.5
20260506090035 51 325 4.3 11.3 0.00 0.00 0.00 68 1012.5
20260506084542 50 5 5.2 13.0 0.00 0.00 0.00 67 1012.5
20260506083037 50 0 2.6 10.4 0.00 0.00 0.00 70 1012.5
20260506081535 48 328 3.5 10.4 0.00 0.00 0.00 71 1012.6
20260506073040 48 29 3.5 9.6 0.00 0.00 0.00 72 1012.6
20260506071548 47 325 1.7 8.7 0.00 0.00 0.00 75 1012.5
20260506061539 46 321 1.7 7.8 0.00 0.00 0.00 80 1012.2